Torna al catalogo

STARLINK-5580

AttivoComunicazioniVLEO
NORAD 55748·PAYLOAD·🇺🇸 United States

Lanciato Mar 3, 2023 da Vandenberg Space Force Base

Loading…

Prossimi Passaggi (prossime 24 ore)

TLE

AggiornatoSource: CelesTrak SupGP

Epoca: Sep 15, 2026, 02:16 UTC

1 55748C 23028H   26258.09493056  .00028677  00000+0  24032-2 0  2583
2 55748  69.9998 126.9388 0002909 271.7174 325.7102 14.98316717    15

Traccia STARLINK-5580 in tempo reale con AllMySat

Download on the App Store